Location: Unspecified
(0.0000°N, 0.0000°E)
Time: 03:34:40
(UTC+00:00)

Transit 2A Rocket - Visible Passes

Search period start: 23 June 2017 00:00
Search period end: 03 July 2017 00:00
Orbit: 591 x 913 km, 66.7° (Epoch: 22 June)

Date Brightness Start Highest point End Pass type
(mag) Time Alt. Az. Time Alt. Az. Time Alt. Az.
23 Jun 8.4 05:24:11 10° NNE 05:28:17 19° ENE 05:32:28 10° ESE visible
24 Jun 7.6 18:55:37 10° WSW 18:58:43 19° WNW 19:01:45 10° NNW visible
26 Jun 7.4 04:58:30 10° N 05:03:38 31° ENE 05:08:54 10° SE visible
27 Jun 8.3 04:17:56 10° NE 04:21:18 15° ENE 04:24:43 10° ESE visible
27 Jun 8.5 18:33:19 10° W 18:34:00 10° WNW 18:34:41 10° WNW visible
28 Jun 5.4 05:15:21 10° NNW 05:21:18 87° WSW 05:27:26 10° SSE visible
29 Jun 6.3 04:33:17 10° N 04:38:58 48° ENE 04:44:50 10° SE visible
30 Jun 7.5 03:51:54 10° NNE 03:56:38 25° ENE 04:01:30 10° ESE visible
30 Jun 6.1 05:33:58 10° NW 05:39:02 29° WSW 05:44:12 10° SSW visible
01 Jul 8.2 03:12:05 10° NE 03:14:18 12° ENE 03:16:32 10° E visible
01 Jul 5.4 04:50:51 10° NNW 04:56:40 56° WSW 05:02:38 10° S visible
02 Jul 5.4 04:08:22 10° NNW 04:14:20 76° ENE 04:20:26 10° SSE visible
